User: anonymous   Login
Location: Sabalos
(43.2860°N, 0.1414°E)
Time: 23:11:43
(UTC+00:00)
Language:

Cosmos 371 Rocket - Orbit

View from above orbital plane
View from above orbital plane
View from above satellite
View from above satellite

Ground track
Ground track

The orbit data is extracted from the following two-line orbital elements,

1  4579U 70083B   20271.67258158  .00000021  00000-0  10478-4 0  9994
2  4579  74.0023 318.6859 0009898  30.0571 330.1160 14.60489729649736
Epoch (UTC): 27 September 2020 16:08:31
Eccentricity: 0.0009898
inclination: 74.0023°
perigee height: 684 km
apogee height: 698 km
right ascension of ascending node: 318.6859°
argument of perigee: 30.0571°
revolutions per day: 14.60489729
mean anomaly at epoch: 330.1160°
orbit number at epoch: 64973

The dashed part of the orbit path shows where the satellite is in the earth's shadow,  

DLR